• Em Portugal
  • Lista de países
  • Para 7 dias
  • Temperatura da água
  • Mapas de satélite
  • Mapa do tempo
  • Widgets de tempo
  • user-avatar
    Iniciar Sessão

    Previsão horária em Bijeljina

    Hoje, 26 Setembro, Quarta-feira

    Tempo Temperatura Precipitação Vento Pressão Humidade
    00:00 +7°C° 0 mm 2 m/s 769 mmHg 59%
    01:00 +7°C° 0 mm 1 m/s 769 mmHg 65%
    02:00 +7°C° 0 mm 1 m/s 769 mmHg 67%
    03:00 +6°C° 0 mm 1 m/s 769 mmHg 70%
    04:00 +6°C° 0 mm 1 m/s 769 mmHg 72%
    05:00 +7°C° 0 mm 1 m/s 769 mmHg 68%
    06:00 +7°C° 0 mm 1 m/s 769 mmHg 65%
    07:00 +9°C° 0 mm 1 m/s 770 mmHg 58%
    08:00 +10°C° 0 mm 2 m/s 769 mmHg 51%
    09:00 +13°C° 0 mm 2 m/s 769 mmHg 43%
    10:00 +14°C° 0 mm 3 m/s 769 mmHg 35%
    11:00 +16°C° 0 mm 3 m/s 769 mmHg 32%
    12:00 +17°C° 0 mm 4 m/s 768 mmHg 29%
    13:00 +18°C° 0 mm 4 m/s 768 mmHg 26%
    14:00 +18°C° 0 mm 4 m/s 768 mmHg 26%
    15:00 +17°C° 0 mm 3 m/s 767 mmHg 26%
    16:00 +17°C° 0 mm 3 m/s 767 mmHg 27%
    17:00 +15°C° 0 mm 2 m/s 767 mmHg 31%
    18:00 +12°C° 0 mm 2 m/s 768 mmHg 35%
    19:00 +10°C° 0 mm 1 m/s 768 mmHg 40%
    20:00 +9°C° 0 mm 1 m/s 768 mmHg 41%
    21:00 +9°C° 0 mm 1 m/s 768 mmHg 42%
    22:00 +8°C° 0 mm 1 m/s 768 mmHg 43%
    23:00 +8°C° 0 mm 1 m/s 768 mmHg 44%

    Amanhã, 27 Setembro, Quinta-feira

    Tempo Temperatura Precipitação Vento Pressão Humidade
    00:00 +8°C° 0 mm 1 m/s 768 mmHg 45%
    01:00 +7°C° 0 mm 1 m/s 768 mmHg 46%
    02:00 +7°C° 0 mm 1 m/s 768 mmHg 47%
    03:00 +7°C° 0 mm 1 m/s 767 mmHg 48%
    04:00 +6°C° 0 mm 1 m/s 767 mmHg 48%
    05:00 +7°C° 0 mm 1 m/s 767 mmHg 46%
    06:00 +8°C° 0 mm 1 m/s 767 mmHg 44%
    07:00 +9°C° 0 mm 1 m/s 767 mmHg 42%
    08:00 +12°C° 0 mm 1 m/s 767 mmHg 36%
    09:00 +15°C° 0 mm 1 m/s 766 mmHg 30%
    10:00 +19°C° 0 mm 1 m/s 766 mmHg 25%
    11:00 +20°C° 0 mm 1 m/s 765 mmHg 23%
    12:00 +21°C° 0 mm 1 m/s 765 mmHg 21%
    13:00 +22°C° 0 mm 1 m/s 764 mmHg 20%
    14:00 +21°C° 0 mm 1 m/s 764 mmHg 21%
    15:00 +21°C° 0 mm 1 m/s 763 mmHg 22%
    16:00 +21°C° 0 mm 1 m/s 763 mmHg 22%
    17:00 +19°C° 0 mm 1 m/s 763 mmHg 26%
    18:00 +15°C° 0 mm 1 m/s 763 mmHg 29%
    19:00 +13°C° 0 mm 1 m/s 763 mmHg 32%
    20:00 +13°C° 0 mm 1 m/s 763 mmHg 33%
    21:00 +12°C° 0 mm 1 m/s 762 mmHg 34%
    22:00 +12°C° 0 mm 1 m/s 762 mmHg 35%
    23:00 +11°C° 0 mm 1 m/s 762 mmHg 36%

    Depois de amanhã, 28 Setembro, Sexta-feira

    Tempo Temperatura Precipitação Vento Pressão Humidade
    00:00 +11°C° 0 mm 1 m/s 761 mmHg 37%
    01:00 +11°C° 0 mm 1 m/s 761 mmHg 37%
    02:00 +10°C° 0 mm 1 m/s 760 mmHg 38%
    03:00 +10°C° 0 mm 1 m/s 760 mmHg 38%
    04:00 +10°C° 0 mm 1 m/s 759 mmHg 39%
    05:00 +11°C° 0 mm 1 m/s 759 mmHg 38%
    06:00 +11°C° 0 mm 1 m/s 759 mmHg 37%
    07:00 +12°C° 0 mm 1 m/s 759 mmHg 36%
    08:00 +15°C° 0 mm 1 m/s 758 mmHg 32%
    09:00 +17°C° 0 mm 2 m/s 758 mmHg 28%
    10:00 +20°C° 0 mm 2 m/s 757 mmHg 24%
    11:00 +21°C° 0 mm 2 m/s 757 mmHg 23%
    12:00 +24°C° 0 mm 3 m/s 756 mmHg 21%
    13:00 +25°C° 0 mm 3 m/s 755 mmHg 20%
    14:00 +25°C° 0 mm 3 m/s 755 mmHg 22%
    15:00 +24°C° 0 mm 3 m/s 754 mmHg 23%
    16:00 +24°C° 0 mm 3 m/s 754 mmHg 25%
    17:00 +21°C° 0 mm 2 m/s 754 mmHg 29%
    18:00 +18°C° 0 mm 2 m/s 754 mmHg 33%
    19:00 +16°C° 0 mm 1 m/s 754 mmHg 37%
    20:00 +15°C° 0 mm 1 m/s 755 mmHg 38%
    21:00 +14°C° 0 mm 1 m/s 755 mmHg 39%
    22:00 +14°C° 0 mm 1 m/s 755 mmHg 40%
    23:00 +13°C° 0 mm 1 m/s 755 mmHg 41%

    29 Setembro, Sábado

    Tempo Temperatura Precipitação Vento Pressão Humidade
    00:00 +13°C° 0 mm 1 m/s 755 mmHg 42%
    01:00 +12°C° 0 mm 1 m/s 755 mmHg 42%
    02:00 +12°C° 0 mm 1 m/s 755 mmHg 43%
    03:00 +12°C° 0 mm 1 m/s 755 mmHg 44%
    04:00 +12°C° 0 mm 1 m/s 755 mmHg 44%
    05:00 +12°C° 0 mm 2 m/s 755 mmHg 44%
    06:00 +13°C° 0 mm 2 m/s 756 mmHg 44%
    07:00 +14°C° 0 mm 2 m/s 756 mmHg 44%
    08:00 +16°C° 0 mm 3 m/s 756 mmHg 42%
    09:00 +19°C° 0 mm 3 m/s 756 mmHg 40%
    10:00 +21°C° 0 mm 4 m/s 756 mmHg 37%
    11:00 +22°C° 0 mm 4 m/s 756 mmHg 38%
    12:00 +23°C° 0 mm 5 m/s 756 mmHg 38%
    13:00 +23°C° 0 mm 5 m/s 756 mmHg 38%
    14:00 +23°C° 0 mm 5 m/s 756 mmHg 40%
    15:00 +22°C° 0 mm 5 m/s 756 mmHg 42%
    16:00 +21°C° 0 mm 6 m/s 756 mmHg 44%
    17:00 +19°C° 0 mm 5 m/s 757 mmHg 48%
    18:00 +16°C° 0 mm 5 m/s 758 mmHg 51%
    19:00 +15°C° 0 mm 4 m/s 758 mmHg 55%
    20:00 +13°C° 0 mm 4 m/s 759 mmHg 58%
    21:00 +12°C° 0 mm 3 m/s 759 mmHg 60%
    22:00 +12°C° 0 mm 2 m/s 759 mmHg 63%
    23:00 +12°C° 0 mm 2 m/s 759 mmHg 65%

    30 Setembro, Domingo

    Tempo Temperatura Precipitação Vento Pressão Humidade
    00:00 +10°C° 0 mm 2 m/s 759 mmHg 68%
    01:00 +9°C° 0 mm 2 m/s 759 mmHg 71%
    02:00 +8°C° 0 mm 2 m/s 759 mmHg 73%
    03:00 +7°C° 0 mm 2 m/s 759 mmHg 75%
    04:00 +6°C° 0 mm 2 m/s 759 mmHg 77%
    05:00 +7°C° 0 mm 2 m/s 759 mmHg 73%
    06:00 +7°C° 0 mm 2 m/s 759 mmHg 69%
    07:00 +8°C° 0 mm 2 m/s 760 mmHg 66%
    08:00 +11°C° 0 mm 1 m/s 759 mmHg 58%
    09:00 +13°C° 0 mm 1 m/s 759 mmHg 50%
    10:00 +15°C° 0 mm 1 m/s 759 mmHg 43%
    11:00 +16°C° 0 mm 2 m/s 758 mmHg 41%
    12:00 +17°C° 0 mm 2 m/s 758 mmHg 39%
    13:00 +19°C° 0 mm 2 m/s 757 mmHg 37%
    14:00 +19°C° 0 mm 2 m/s 757 mmHg 38%
    15:00 +19°C° 0 mm 2 m/s 756 mmHg 40%
    16:00 +19°C° 0 mm 3 m/s 756 mmHg 41%
    17:00 +17°C° 0 mm 2 m/s 756 mmHg 48%
    18:00 +15°C° 0 mm 2 m/s 756 mmHg 56%
    19:00 +13°C° 0 mm 1 m/s 757 mmHg 63%
    20:00 +13°C° 0 mm 2 m/s 757 mmHg 66%
    21:00 +12°C° 0 mm 2 m/s 756 mmHg 69%
    22:00 +12°C° 0 mm 2 m/s 756 mmHg 72%
    23:00 +10°C° 0 mm 2 m/s 756 mmHg 74%

    1 Outubro, Segunda-feira

    Tempo Temperatura Precipitação Vento Pressão Humidade
    00:00 +10°C° 0 mm 2 m/s 756 mmHg 76%
    01:00 +9°C° 0 mm 2 m/s 755 mmHg 79%
    02:00 +9°C° 0 mm 2 m/s 755 mmHg 80%
    03:00 +10°C° 0 mm 1 m/s 755 mmHg 81%
    04:00 +9°C° 0 mm 1 m/s 754 mmHg 83%
    05:00 +10°C° 0 mm 1 m/s 754 mmHg 80%
    06:00 +11°C° 0 mm 1 m/s 754 mmHg 77%
    07:00 +11°C° 0 mm 1 m/s 754 mmHg 73%
    08:00 +14°C° 0 mm 1 m/s 754 mmHg 65%
    09:00 +18°C° 0 mm 1 m/s 753 mmHg 56%
    10:00 +20°C° 0 mm 1 m/s 753 mmHg 47%
    11:00 +21°C° 0 mm 1 m/s 752 mmHg 45%
    12:00 +23°C° 0 mm 1 m/s 752 mmHg 42%
    13:00 +24°C° 0 mm 1 m/s 751 mmHg 39%
    14:00 +23°C° 0 mm 1 m/s 751 mmHg 40%
    15:00 +23°C° 0 mm 1 m/s 751 mmHg 41%
    16:00 +23°C° 0 mm 1 m/s 750 mmHg 42%
    17:00 +21°C° 0 mm 1 m/s 751 mmHg 49%
    18:00 +18°C° 0 mm 1 m/s 751 mmHg 55%
    19:00 +15°C° 0 mm 1 m/s 751 mmHg 62%
    20:00 +15°C° 0 mm 1 m/s 751 mmHg 64%
    21:00 +14°C° 0 mm 1 m/s 752 mmHg 65%
    22:00 +14°C° 0 mm 1 m/s 752 mmHg 67%
    23:00 +14°C° 0 mm 1 m/s 752 mmHg 69%
    Mostrar mais